Location: Eastlake (historical)
(39.0077°N, 122.6678°W)
Time: 13:07:56
(UTC+00:00)

SL-4 R/B - Pass Details

Date: 25 November 2020
Orbit: 428 x 664 km, 51.6° (Epoch: 25 January)

Event Time Altitude Azimuth Distance (km) Brightness Sun altitude
Exits shadow 14:13:22 11° 317° (NW) 1,663 3.9 -10.1°
Maximum altitude 14:15:13 14° 347° (NNW) 1,448 3.9 -9.8°
Drops below altitude 10° 14:17:19 10° 21° (NNE) 1,661 4.5 -9.4°
Sets 14:20:15 0° 47° (NE) 2,493 5.8 -8.8°
